This is the latest recevied weather packets stored in our database for station/object K1TTC. If no packets are shown the sender has not sent any weather packets the latest 10 day(s).
| Time | Temp. | Humidity | Pressure | Rain* | Wind** | Luminosity | Snow |
|---|---|---|---|---|---|---|---|
| 1777291307 | 6.67° C | 73% | 1026.5 hPa | 0 mm | - | 42 W/m² | - |
| 1777290691 | 5.56° C | 74% | 1026.4 hPa | 0 mm | - | 39 W/m² | - |
| 1777290091 | 5° C | 75% | 1026.3 hPa | 0 mm | - | 37 W/m² | - |
| 1777289606 | 4.44° C | 75% | 1026.3 hPa | 0 mm | - | 69 W/m² | - |
| 1777288888 | 3.89° C | 74% | 1026.1 hPa | 0 mm | - | 40 W/m² | - |
| 1777288287 | 3.33° C | 73% | 1026 hPa | 0 mm | - | 91 W/m² | - |
| 1777287684 | 2.78° C | 73% | 1025.8 hPa | 0 mm | - | 35 W/m² | - |
| 1777287081 | 2.78° C | 73% | 1025.8 hPa | 0 mm | - | 53 W/m² | - |
| 1777286481 | 2.78° C | 72% | 1025.8 hPa | 0 mm | - | 30 W/m² | - |
| 1777285985 | 2.22° C | 72% | 1025.6 hPa | 0 mm | - | 30 W/m² | - |
| 1777285385 | 2.22° C | 71% | 1025.6 hPa | 0 mm | - | 25 W/m² | - |
| 1777284680 | 2.22° C | 71% | 1025.3 hPa | 0 mm | - | 12 W/m² | - |
| 1777284081 | 2.78° C | 71% | 1025.2 hPa | 0 mm | - | 9 W/m² | - |
| 1777283593 | 2.78° C | 71% | 1025.1 hPa | 0 mm | - | 0 W/m² | - |
| 1777282877 | 2.78° C | 71% | 1025.1 hPa | 0 mm | - | 0 W/m² | - |
| 1777282275 | 2.78° C | 70% | 1024.9 hPa | 0 mm | - | 0 W/m² | - |
| 1777281760 | 2.78° C | 70% | 1024.8 hPa | 0 mm | - | 0 W/m² | - |
| 1777281075 | 2.78° C | 70% | 1024.7 hPa | 0 mm | - | 0 W/m² | - |
| 1777280472 | 2.78° C | 69% | 1024.5 hPa | 0 mm | - | 0 W/m² | - |
| 1777279951 | 2.78° C | 69% | 1024.5 hPa | 0 mm | - | 0 W/m² | - |
| 1777279269 | 2.78° C | 69% | 1024.3 hPa | 0 mm | - | 0 W/m² | - |
| 1777278671 | 3.33° C | 69% | 1024.3 hPa | 0 mm | - | 0 W/m² | - |
| 1777278151 | 3.33° C | 68% | 1024.4 hPa | 0 mm | - | 0 W/m² | - |
| 1777277467 | 3.33° C | 68% | 1024.3 hPa | 0 mm | - | 0 W/m² | - |
| 1777276865 | 3.33° C | 68% | 1024.2 hPa | 0 mm | - | 0 W/m² | - |
* Rain latest hour (hover to see other rain measurements)
** Current wind speed in m/s (hover to see current wind gust speed)